Location: Unspecified
(0.0000°N, 0.0000°E)
Time: 02:41:19
(UTC+00:00)

USA 184 - Visible Passes

Search period start: 25 July 2024 00:00
Search period end: 04 August 2024 00:00
Orbit: 1078 x 39274 km, 63.5° (Epoch: 28 February)

Date Brightness Start Highest point End Pass type
(mag) Time Alt. Az. Time Alt. Az. Time Alt. Az.
25 Jul 6.1 02:16:59 71° W 02:19:13 72° WNW 13:30:25 10° SSE visible
26 Jul 6.2 02:12:55 72° W 02:14:41 72° WNW 13:25:53 10° SSE visible
27 Jul 6.2 02:08:51 72° WNW 02:10:10 72° WNW 13:21:22 10° SSE visible
28 Jul 6.2 02:04:47 72° WNW 02:05:38 72° WNW 13:16:51 10° SSE visible
29 Jul 6.3 02:00:43 72° WNW 02:01:06 72° WNW 13:12:19 10° SSE visible
30 Jul 6.3 01:56:38 72° WNW 01:56:38 72° WNW 13:07:48 10° SSE visible
31 Jul 6.3 01:52:33 72° WNW 01:52:33 72° WNW 13:03:17 10° SSE visible
01 Aug 6.3 01:48:28 72° WNW 01:48:28 72° WNW 12:58:45 10° SSE visible
02 Aug 6.3 01:44:23 72° NW 01:44:23 72° NW 12:54:14 10° SSE visible
03 Aug 6.3 01:40:18 72° NW 01:40:18 72° NW 12:49:43 10° SSE visible
